N3HCP Weather Reports


Display with metric or nautical units.
time (UTC)temp
F
wind
direction
speed
MPH
gust
MPH
rain 1hr
in
rain 24hr
in
rain mn
in
humidity
%
barometer
mb
20260504234524 67 111 1.0 4.0 0.00 0.00 0.00 52 1007.5
20260504234029 67 143 1.0 3.0 0.00 0.00 0.00 52 1007.5
20260504233523 67 167 0.0 4.0 0.00 0.00 0.00 51 1007.4
20260504233022 68 154 1.0 5.0 0.00 0.00 0.00 50 1007.3
20260504232522 69 152 1.0 4.0 0.00 0.00 0.00 49 1007.2
20260504232021 69 149 1.0 10.0 0.00 0.00 0.00 49 1007.3
20260504231520 69 116 2.0 9.0 0.00 0.00 0.00 48 1007.3
20260504231020 70 165 1.0 8.0 0.00 0.00 0.00 48 1007.3
20260504230520 71 206 2.0 8.0 0.00 0.00 0.00 47 1007.3
20260504230018 72 124 2.0 6.0 0.00 0.00 0.00 46 1007.2
20260504225518 72 201 1.0 5.0 0.00 0.00 0.00 45 1007.2
20260504225017 72 203 1.0 5.0 0.00 0.00 0.00 45 1007.2
20260504224519 72 168 2.0 8.0 0.00 0.00 0.00 44 1007.2
20260504224016 73 171 2.0 8.0 0.00 0.00 0.00 45 1007.2
20260504223515 73 148 2.0 7.0 0.00 0.00 0.00 44 1007.3
20260504223015 73 143 1.0 5.0 0.00 0.00 0.00 45 1007.3
20260504222513 73 210 0.0 6.0 0.00 0.00 0.00 44 1007.2
20260504222016 73 237 1.0 7.0 0.00 0.00 0.00 44 1007.2
20260504221512 73 157 2.0 7.0 0.00 0.00 0.00 43 1007.3
20260504221011 73 168 0.0 4.0 0.00 0.00 0.00 43 1007.3
20260504220512 74 179 1.0 4.0 0.00 0.00 0.00 44 1007.4
20260504220010 74 150 1.0 7.0 0.00 0.00 0.00 43 1007.4
20260504215508 73 298 1.0 16.0 0.00 0.00 0.00 44 1007.3
20260504215007 73 252 3.0 16.0 0.00 0.00 0.00 42 1007.5
20260504214517 74 120 2.0 11.0 0.00 0.00 0.00 42 1007.6
20260504214012 74 229 3.0 8.0 0.00 0.00 0.00 42 1007.5
20260504213505 74 221 1.0 5.0 0.00 0.00 0.00 44 1007.4
20260504213004 74 212 1.0 6.0 0.00 0.00 0.00 43 1007.5
20260504212603 74 176 0.0 6.0 0.00 0.00 0.00 43 1007.5
20260504212002 74 203 2.0 8.0 0.00 0.00 0.00 41 1007.5
20260504211600 74 163 0.0 8.0 0.00 0.00 0.00 42 1007.5
20260504211101 74 193 1.0 9.0 0.00 0.00 0.00 42 1007.4
20260504210558 74 186 3.0 9.0 0.00 0.00 0.00 42 1007.6
20260504210059 74 203 0.0 4.0 0.00 0.00 0.00 44 1007.6
20260504205555 73 252 1.0 4.0 0.00 0.00 0.00 44 1007.6
20260504205056 73 249 0.0 16.0 0.00 0.00 0.00 44 1007.6
20260504204553 73 221 1.0 16.0 0.00 0.00 0.00 43 1007.7
20260504204052 73 213 1.0 10.0 0.00 0.00 0.00 45 1007.7
20260504203550 73 224 2.0 9.0 0.00 0.00 0.00 43 1007.6
20260504203048 73 248 3.0 9.0 0.00 0.00 0.00 43 1007.7
20260504202547 73 202 2.0 9.0 0.00 0.00 0.00 45 1007.7
20260504202046 73 233 1.0 8.0 0.00 0.00 0.00 44 1008.0
20260504201559 73 207 1.0 11.0 0.00 0.00 0.00 44 1008.0
20260504201047 73 228 3.0 11.0 0.00 0.00 0.00 45 1008.0
20260504200543 72 155 0.0 23.0 0.00 0.00 0.00 45 1008.2
20260504200045 72 239 3.0 23.0 0.00 0.00 0.00 44 1008.3
20260504195540 73 250 2.0 11.0 0.00 0.00 0.00 43 1008.3
20260504195039 73 203 3.0 11.0 0.00 0.00 0.00 45 1008.4
20260504194541 73 233 1.0 13.0 0.00 0.00 0.00 46 1008.5
20260504194036 73 172 1.0 8.0 0.00 0.00 0.00 44 1008.5
20260504193534 72 235 1.0 11.0 0.00 0.00 0.00 45 1008.4
20260504193034 72 218 2.0 13.0 0.00 0.00 0.00 47 1008.5
20260504192533 72 238 3.0 17.0 0.00 0.00 0.00 43 1008.5
20260504192032 72 235 4.0 17.0 0.00 0.00 0.00 42 1008.6
20260504191530 72 228 1.0 10.0 0.00 0.00 0.00 45 1008.7
20260504191030 72 141 3.0 12.0 0.00 0.00 0.00 45 1008.7
20260504190531 71 237 5.0 12.0 0.00 0.00 0.00 43 1008.8
20260504190028 72 237 4.0 7.0 0.00 0.00 0.00 44 1009.0
20260504185525 73 199 3.0 6.0 0.00 0.00 0.00 42 1008.9
20260504185023 72 155 1.0 16.0 0.00 0.00 0.00 47 1009.0
20260504184524 72 236 3.0 16.0 0.00 0.00 0.00 43 1009.1
20260504184021 72 149 1.0 8.0 0.00 0.00 0.00 46 1009.1
20260504183520 72 240 1.0 8.0 0.00 0.00 0.00 46 1009.1
20260504183018 72 214 3.0 7.0 0.00 0.00 0.00 45 1009.2
20260504182515 71 198 2.0 11.0 0.00 0.00 0.00 44 1009.3
20260504182014 71 200 1.0 14.0 0.00 0.00 0.00 45 1009.5
20260504181523 71 146 3.0 9.0 0.00 0.00 0.00 44 1009.4
20260504181015 71 210 1.0 7.0 0.00 0.00 0.00 45 1009.6
20260504180511 71 226 1.0 7.0 0.00 0.00 0.00 44 1009.7
20260504180009 71 262 2.0 7.0 0.00 0.00 0.00 44 1009.7
20260504175508 70 159 2.0 6.0 0.00 0.00 0.00 44 1009.7
20260504175107 70 236 1.0 5.0 0.00 0.00 0.00 45 1009.7
20260504174506 70 173 2.0 11.0 0.00 0.00 0.00 44 1009.8
20260504174004 70 188 1.0 12.0 0.00 0.00 0.00 43 1009.8
20260504173504 70 178 3.0 12.0 0.00 0.00 0.00 45 1009.9
20260504173002 70 335 3.0 11.0 0.00 0.00 0.00 44 1009.9
20260504172600 70 262 2.0 11.0 0.00 0.00 0.00 45 1010.0
20260504172100 69 217 1.0 10.0 0.00 0.00 0.00 47 1010.1
20260504171608 69 217 3.0 10.0 0.00 0.00 0.00 44 1010.2
20260504171057 69 127 0.0 10.0 0.00 0.00 0.00 47 1010.3
20260504170554 68 196 4.0 15.0 0.00 0.00 0.00 44 1010.4
20260504151024 64 136 4.0 8.0 0.00 0.00 0.00 46 1011.9
20260504150523 64 261 3.0 7.0 0.00 0.00 0.00 46 1012.0
20260504141107 61 221 1.0 9.0 0.00 0.00 0.00 50 1012.5
20260504140508 61 221 2.0 9.0 0.00 0.00 0.00 51 1012.5
20260504130551 58 166 0.0 3.0 0.00 0.00 0.00 54 1012.7
20260504110519 50 88 0.0 1.0 0.00 0.00 0.00 56 1012.7
20260504100511 46 72 0.0 2.0 0.00 0.00 0.00 63 1012.6
20260504081547 48 157 0.0 2.0 0.00 0.00 0.00 60 1013.0
20260504081048 48 148 0.0 2.0 0.00 0.00 0.00 60 1012.9
20260504080546 48 160 0.0 2.0 0.00 0.00 0.00 60 1012.9
20260504050517 49 138 0.0 2.0 0.00 0.00 0.00 58 1013.1
20260504050014 49 234 0.0 1.0 0.00 0.00 0.00 58 1013.1
20260504045515 49 234 0.0 1.0 0.00 0.00 0.00 57 1013.1
20260504045013 49 253 0.0 2.0 0.00 0.00 0.00 57 1013.1
20260504044513 49 243 0.0 2.0 0.00 0.00 0.00 57 1013.1
20260504044012 49 265 0.0 1.0 0.00 0.00 0.00 57 1013.1
20260504043510 50 127 0.0 1.0 0.00 0.00 0.00 57 1013.1
20260504043010 50 132 0.0 3.0 0.00 0.00 0.00 55 1013.2
20260504042509 50 250 0.0 7.0 0.00 0.00 0.00 55 1013.1
20260504042006 50 260 0.0 1.0 0.00 0.00 0.00 56 1013.1
20260504041506 50 272 0.0 6.0 0.00 0.00 0.00 56 1013.2
20260504041005 50 264 1.0 6.0 0.00 0.00 0.00 55 1013.1
20260504040504 50 304 0.0 2.0 0.00 0.00 0.00 56 1013.0
20260504040003 50 235 0.0 5.0 0.00 0.00 0.00 56 1013.0
20260504035503 50 224 0.0 3.0 0.00 0.00 0.00 57 1013.0
20260504035001 49 281 0.0 3.0 0.00 0.00 0.00 56 1012.8
20260504034501 49 266 0.0 1.0 0.00 0.00 0.00 57 1012.8
20260504034100 49 212 0.0 1.0 0.00 0.00 0.00 58 1012.8
20260504033559 49 231 0.0 1.0 0.00 0.00 0.00 58 1012.8
20260504033116 49 197 0.0 0.0 0.00 0.00 0.00 58 1012.7
20260504032559 49 193 0.0 0.0 0.00 0.00 0.00 58 1012.8
20260504032058 49 193 0.0 1.0 0.00 0.00 0.00 58 1012.7
20260504031603 49 231 0.0 1.0 0.00 0.00 0.00 58 1012.7
20260504031100 48 254 0.0 1.0 0.00 0.00 0.00 58 1012.7
20260504030555 48 238 0.0 2.0 0.00 0.00 0.00 59 1012.6
20260504030055 48 231 0.0 2.0 0.00 0.00 0.00 59 1012.6
20260504025554 49 221 0.0 0.0 0.00 0.00 0.00 59 1012.6
20260504025054 49 221 0.0 1.0 0.00 0.00 0.00 58 1012.6
20260504024600 49 221 0.0 1.0 0.00 0.00 0.00 58 1012.6
20260504024052 48 221 0.0 2.0 0.00 0.00 0.00 58 1012.7
20260504023556 47 260 0.0 2.0 0.00 0.00 0.00 60 1012.6
20260504023051 46 254 0.0 0.0 0.00 0.00 0.00 62 1012.7
20260504022551 46 254 0.0 0.0 0.00 0.00 0.00 62 1012.7
20260504022050 46 254 0.0 0.0 0.00 0.00 0.00 62 1012.6
20260504021554 46 254 0.0 1.0 0.00 0.00 0.00 61 1012.7
20260504021052 46 254 0.0 0.0 0.00 0.00 0.00 62 1012.8
20260504020547 46 254 0.0 0.0 0.00 0.00 0.00 62 1012.7
20260504020050 46 254 0.0 0.0 0.00 0.00 0.00 62 1012.7
20260504015546 47 254 0.0 0.0 0.00 0.00 0.00 61 1012.7
20260504015047 47 254 0.0 0.0 0.00 0.00 0.00 62 1012.7
20260504014546 47 254 0.0 0.0 0.00 0.00 0.00 61 1012.7
20260504014046 47 254 0.0 0.0 0.00 0.00 0.00 60 1012.7
20260504013545 47 254 0.0 0.0 0.00 0.00 0.00 60 1012.5
20260504013048 47 254 0.0 0.0 0.00 0.00 0.00 61 1012.6
20260504012546 47 254 0.0 0.0 0.00 0.00 0.00 60 1012.6
20260504012044 47 254 0.0 0.0 0.00 0.00 0.00 59 1012.4
20260504011543 48 254 0.0 0.0 0.00 0.00 0.00 58 1012.5
20260504011040 48 254 0.0 0.0 0.00 0.00 0.00 58 1012.5
20260504010540 48 254 0.0 0.0 0.00 0.00 0.00 58 1012.6
20260504010040 48 254 0.0 0.0 0.00 0.00 0.00 59 1012.5
20260504005539 48 254 0.0 0.0 0.00 0.00 0.00 59 1012.5
20260504005039 49 254 0.0 0.0 0.00 0.00 0.00 58 1012.5
20260504004546 49 254 0.0 0.0 0.00 0.00 0.00 56 1012.5
20260504004037 50 254 0.0 0.0 0.00 0.00 0.00 55 1012.4
20260504003538 51 254 0.0 0.0 0.00 0.00 0.00 53 1012.4
20260504003036 51 254 0.0 0.0 0.00 0.00 0.00 52 1012.2
20260504002536 52 254 0.0 0.0 0.00 0.00 0.00 53 1012.2
20260504002037 53 254 0.0 1.0 0.00 0.00 0.00 51 1012.1
20260504001635 53 254 0.0 1.0 0.00 0.00 0.00 51 1012.0
20260504001034 54 226 0.0 3.0 0.00 0.00 0.00 50 1011.9
20260504000534 54 221 0.0 3.0 0.00 0.00 0.00 48 1011.9
20260504000034 55 238 0.0 4.0 0.00 0.00 0.00 48 1011.8
20260503235532 55 231 0.0 6.0 0.00 0.00 0.00 47 1011.7
20260503235032 56 255 0.0 4.0 0.00 0.00 0.00 47 1011.8